User: anonymous   Login
Location: Norwich
(52.6280°N, 1.3030°E)
Time: 22:21:15
(UTC+01:00)
Language:

Meteor 1-22 Rocket - Orbit

View from above orbital plane
View from above orbital plane
View from above satellite
View from above satellite

Ground track
Ground track

The orbit data is extracted from the following two-line orbital elements,

1 08294U 75087B   15214.80376998  .00000067  00000-0  29994-4 0  9993
2 08294 081.2088 329.6274 0105233 171.7487 188.5446 14.08497750 48502
Epoch (UTC): 02 August 2015 19:17:25
Eccentricity: 0.0105233
inclination: 81.2088°
perigee height: 788 km
apogee height: 941 km
right ascension of ascending node: 329.6274°
argument of perigee: 171.7487°
revolutions per day: 14.08497750
mean anomaly at epoch: 188.5446°
orbit number at epoch: 4850

The dashed part of the orbit path shows where the satellite is in the earth's shadow,  

DLR